Location: Lane
(33.5226°N, 79.8788°W)
Time: 20:34:44
(UTC+00:00)

Explorer 11/Cluster Stage 4 - Pass Details

Date: 03 October 2022
Orbit: 466 x 1247 km, 28.8° (Epoch: 01 December)

Event Time Altitude Azimuth Distance (km) Brightness Sun altitude
Rises 20:55:12 0° 271° (W) 3,850 11.2 24.6°
Reaches altitude 10° 20:58:25 10° 263° (W) 2,768 11.0 24.0°
Maximum altitude 21:04:20 34° 201° (SSW) 1,379 8.7 22.8°
Drops below altitude 10° 21:09:12 10° 137° (SE) 2,256 8.8 21.9°
Sets 21:11:34 0° 128° (SE) 3,054 9.3 21.4°
